Location: Passau
(48.5830°N, 13.4830°E)
Time: 08:13:03
(UTC+02:00)

Courier 1B Rocket - All Passes

Search period start: 31 July 2021 00:00
Search period end: 10 August 2021 00:00
Orbit: 920 x 1202 km, 28.2° (Epoch: 30 July)

Date Brightness Start Highest point End Pass type
(mag) Time Alt. Az. Time Alt. Az. Time Alt. Az.
31 Jul - 04:24:00 10° S 04:25:16 11° S 04:26:33 10° SSE visible
01 Aug - 05:15:23 10° SSW 05:16:40 11° S 05:17:56 10° S daylight
02 Aug - 04:14:09 10° SSW 04:16:04 11° S 04:17:58 10° SSE visible
03 Aug - 03:13:26 10° SSW 03:15:27 11° S 03:17:27 10° SSE visible
04 Aug - 02:13:12 10° S 02:14:50 11° S 02:16:26 10° SSE visible
04 Aug - 04:04:57 10° SSW 04:06:51 11° S 04:08:43 10° S visible
05 Aug - 03:03:42 10° SSW 03:06:14 12° S 03:08:43 10° SSE visible
06 Aug - 02:02:51 10° SSW 02:05:35 12° S 02:08:15 10° SSE night (unlit)
06 Aug - 03:56:29 10° SSW 03:57:36 10° SSW 03:58:43 10° S visible
07 Aug - 01:02:22 10° SSW 01:04:54 12° S 01:07:22 10° SSE night (unlit)
07 Aug - 02:54:26 10° SSW 02:56:59 12° S 02:59:29 10° SSE visible
08 Aug - 00:02:32 10° S 00:04:12 11° SSE 00:05:50 10° SSE night (unlit)
08 Aug - 01:53:11 10° SSW 01:56:20 13° S 01:59:23 10° SSE night (unlit)
09 Aug - 00:52:16 10° SSW 00:55:37 14° S 00:58:53 10° SSE night (unlit)
09 Aug - 02:45:39 10° SSW 02:47:42 11° SSW 02:49:43 10° S night (unlit)
09 Aug - 23:51:42 10° SSW 23:54:53 13° S 23:58:00 10° SSE night (unlit)
